[[{"header":{"parameterUnit":"m.s-1","parameterCategory":1,"la1":30.2991,"la2":30.254,"lo1":-89.0895,"lo2":-89.0444,"dy":0.0017,"dx":0.0017,"nx":28,"ny":28,"refTime":"2026-01-04T09:00:00:Z","depth":0,"parameterNumber":2,"parameterNumberName":"U-component_of_WINDS"},"data":[0,0,0,0,0,0,0,0,0,0,0,0,0,0,0,0,0,0,0,0,0,0,0,0,0,0,0,0,0,0,0,0,0,0,0,0,0,0,0,0,0,0,0,0,0,0,0,0,0,0,0,0,0,0,0,0,0,0,-1.2443,-1.2443,0,-1.2455,-1.2455,-1.2455,-1.2394,-1.2392,-1.239,-1.2389,-1.2402,-1.2404,-1.2406,0,0,0,0,0,0,0,0,0,0,0,0,0,-1.2369,-1.237,-1.2443,-1.2443,-1.2443,-1.2455,-1.2455,-1.2455,-1.2394,-1.2392,-1.239,-1.2388,-1.2401,-1.2404,-1.2406,0,0,0,0,0,0,0,0,0,0,0,0,0,-1.2393,-1.2371,-1.2443,-1.2414,-1.2412,-1.2455,-1.2455,-1.2455,-1.2395,-1.2392,-1.2389,-1.2387,-1.2401,-1.2404,-1.2407,-1.2478,0,0,-1.2416,-1.2417,0,0,0,0,0,0,0,0,-1.2392,-1.2396,-1.2418,-1.2416,-1.2414,-1.242,-1.2434,-1.2463,-1.2395,-1.2401,-1.2389,-1.2386,-1.241,-1.2412,-1.2421,-1.2479,-1.2479,-1.2416,-1.2418,-1.2419,-1.242,0,0,0,0,0,0,0,-1.239,-1.2395,-1.2448,-1.2419,-1.2416,-1.2401,-1.2402,-1.2439,-1.2421,-1.2401,-1.2396,-1.2398,-1.2409,-1.2418,-1.242,-1.248,-1.2416,-1.2419,-1.2421,-1.2422,-1.2598,-1.2601,0,0,0,0,0,0,-1.2392,-1.2394,-1.2447,-1.2448,-1.2396,-1.2405,-1.2405,-1.2421,-1.242,-1.2417,-1.2401,-1.2395,-1.2414,-1.2417,-1.2421,-1.2506,-1.2419,-1.2422,-1.2424,-1.2595,-1.2599,-1.2602,0,0,0,0,0,0,-1.2391,-1.2397,-1.2447,-1.242,-1.2425,-1.2409,-1.2427,-1.2422,-1.2432,-1.242,-1.2416,-1.2413,-1.2412,-1.2416,-1.2464,-1.2505,-1.2423,-1.2426,-1.2592,-1.2596,-1.26,-1.2676,0,0,0,0,0,0,-1.2389,-1.2397,-1.2424,-1.2421,-1.2427,-1.2491,-1.2429,-1.2425,-1.2437,-1.243,-1.2431,-1.2429,-1.241,-1.246,-1.2468,-1.2508,-1.2428,-1.2588,-1.2594,-1.2599,-1.267,-1.2682,-1.2693,0,0,0,0,0,-1.2386,-1.2445,-1.2426,-1.2433,-1.246,-1.2493,-1.2496,-1.2474,-1.244,-1.2467,-1.246,-1.2429,-1.2499,-1.2466,-1.2473,-1.2515,-1.2586,-1.2592,-1.2599,-1.2664,-1.268,-1.2692,0,0,0,0,0,0,-1.2454,-1.2444,-1.2423,-1.2482,-1.2489,-1.2483,-1.2516,-1.249,-1.2507,-1.25,-1.2472,-1.2472,-1.2526,-1.2525,-1.2488,-1.2585,-1.2537,-1.2545,-1.2584,-1.2598,-1.261,-1.261,-1.2431,0,0,0,0,0,-1.2476,-1.2503,-1.2493,-1.2546,-1.255,-1.2533,-1.2546,-1.2528,-1.2534,-1.2537,-1.2533,-1.2541,-1.2564,-1.2581,-1.2602,-1.2668,-1.2668,-1.2701,-1.2712,-1.2722,-1.273,-1.2766,-1.2781,-1.2623,-1.2623,-1.2623,0,0,-1.2521,-1.2519,-1.2538,-1.256,-1.2563,-1.2593,-1.2536,-1.2569,-1.2591,-1.2542,-1.2588,-1.2585,-1.2592,-1.265,-1.2675,-1.265,-1.2773,-1.273,-1.2738,-1.2741,-1.2774,-1.2789,-1.2803,-1.2628,-1.2627,-1.2626,0,0,-1.2619,-1.262,-1.2665,-1.2669,-1.2674,-1.2662,-1.2673,-1.2671,-1.2667,-1.2712,-1.2676,-1.2702,-1.2743,-1.2749,-1.2758,-1.2858,-1.2831,-1.2866,-1.2928,-1.2963,-1.2975,-1.2986,-1.3024,-1.3037,-1.2874,-1.2874,-1.2874,0,-1.2675,-1.2718,-1.2691,-1.2728,-1.2739,-1.2695,-1.274,-1.2746,-1.2758,-1.2767,-1.2739,-1.2791,-1.2792,-1.2851,-1.2875,-1.2883,-1.2896,-1.2867,-1.2976,-1.2986,-1.2996,-1.3032,-1.3046,-1.2878,-1.2878,-1.2877,-1.2877,0,-1.2787,-1.2818,-1.2853,-1.2866,-1.2881,-1.2922,-1.2902,-1.292,-1.29,-1.2891,-1.2938,-1.2937,-1.2958,-1.297,-1.2951,-1.3027,-1.3012,-1.298,-1.2932,-1.3016,-1.3049,-1.3062,-1.2885,-1.2883,-1.2882,-1.2881,0,0,-1.293,-1.2927,-1.2941,-1.2947,-1.2949,-1.2972,-1.3011,-1.3031,-1.3048,-1.3057,-1.309,-1.3126,-1.3097,-1.3107,-1.3088,-1.3119,-1.32,-1.3083,-1.3083,-1.3107,-1.3285,-1.3311,-1.3327,-1.3181,-1.3183,-1.3185,-1.3285,0,-1.3028,-1.3094,-1.3071,-1.3139,-1.3168,-1.3126,-1.316,-1.3165,-1.3158,-1.3181,-1.3172,-1.3199,-1.3157,-1.3163,-1.3191,-1.3184,-1.3236,-1.3176,-1.3212,-1.3214,-1.3214,-1.3344,-1.3371,-1.3466,-1.3298,-1.33,-1.3301,0,-1.3151,-1.3166,-1.3237,-1.3235,-1.3246,-1.3277,-1.3294,-1.3316,-1.3321,-1.3313,-1.3325,-1.3299,-1.3338,-1.3287,-1.3341,-1.3301,-1.3314,-1.3312,-1.3315,-1.332,-1.3265,-1.3354,-1.3495,-1.351,-1.3321,-1.3319,-1.3318,0,-1.3251,-1.3288,-1.3335,-1.3341,-1.334,-1.3363,-1.3363,-1.3366,-1.3379,-1.3394,-1.3403,-1.3421,-1.3432,-1.3447,-1.3428,-1.3393,-1.3485,-1.3433,-1.3481,-1.3481,-1.3504,-1.3503,-1.3652,-1.3509,-1.3509,-1.3508,-1.3508,0,-1.3364,-1.3409,-1.338,-1.341,-1.346,-1.3432,-1.3483,-1.3478,-1.3481,-1.3509,-1.3474,-1.3501,-1.3472,-1.3497,-1.3482,-1.353,-1.3534,-1.353,-1.3526,-1.3534,-1.3535,-1.3544,-1.3538,-1.3512,-1.3511,-1.351,-1.351,0,-1.3484,-1.3466,-1.3516,-1.351,-1.351,-1.3547,-1.3542,-1.357,-1.3559,-1.3595,-1.3602,-1.3586,-1.3613,-1.3594,-1.3622,-1.3612,-1.3674,-1.366,-1.3673,-1.367,-1.372,-1.3716,-1.3881,-1.3902,-1.3744,-1.3745,-1.3747,0,-1.3559,-1.3593,-1.3591,-1.3607,-1.361,-1.3636,-1.365,-1.3624,-1.364,-1.3648,-1.3675,-1.3699,-1.3718,-1.3763,-1.3754,-1.3775,-1.3762,-1.3818,-1.3765,-1.3773,-1.3766,-1.3765,-1.3769,-1.383,-1.3832,-1.3834,-1.3835,0,-1.3693,-1.3683,-1.3704,-1.3722,-1.374,-1.3753,-1.3763,-1.3778,-1.3752,-1.3771,-1.3799,-1.3813,-1.3841,-1.3866,-1.3883,-1.3884,-1.3856,-1.3851,-1.3864,-1.3874,-1.3882,-1.388,-1.3705,-1.3848,-1.3847,-1.3846,-1.3845,-1.3845,-1.3794,-1.3823,-1.3827,-1.3851,-1.3856,-1.3867,-1.3892,-1.3885,-1.3907,-1.3928,-1.391,-1.3944,-1.3948,-1.3969,-1.3973,-1.3999,-1.3976,-1.3994,-1.3999,-1.4004,-1.4012,-1.3875,-1.4001,-1.4001,-1.4001,-1.4,-1.4,0,-1.3929,-1.3929,-1.3952,-1.3967,-1.3987,-1.3957,-1.3967,-1.3986,-1.4016,-1.4022,-1.404,-1.4072,-1.4096,-1.4089,-1.411,-1.4132,-1.412,-1.4139,-1.4139,-1.414,-1.403,-1.4018,-1.4149,-1.4149,-1.4149,-1.4149,-1.4149,-1.4149,-1.4002,-1.405,-1.4039,-1.4089,-1.4088,-1.4121,-1.4129,-1.4139,-1.4144,-1.4181,-1.4201,-1.4195,-1.4196,-1.4217,-1.4238,-1.4235,-1.4246,-1.427,-1.4263,-1.4162,-1.4147,-1.4133,-1.4122,-1.4272,-1.4272,-1.437,-1.4371,-1.4372]},{"header":{"parameterUnit":"m.s-1","parameterCategory":1,"la1":30.2991,"la2":30.254,"lo1":-89.0895,"lo2":-89.0444,"dy":0.0017,"dx":0.0017,"nx":28,"ny":28,"refTime":"2026-01-04T09:00:00:Z","depth":0,"parameterNumber":3,"parameterNumberName":"V-component_of_WINDS"},"data":[0,0,0,0,0,0,0,0,0,0,0,0,0,0,0,0,0,0,0,0,0,0,0,0,0,0,0,0,0,0,0,0,0,0,0,0,0,0,0,0,0,0,0,0,0,0,0,0,0,0,0,0,0,0,0,0,0,0,-6.359,-6.3592,0,-6.3699,-6.37,-6.3701,-6.3625,-6.3622,-6.3618,-6.3615,-6.372,-6.3726,-6.3732,0,0,0,0,0,0,0,0,0,0,0,0,0,-6.3314,-6.3319,-6.359,-6.3592,-6.3593,-6.3698,-6.37,-6.3701,-6.3626,-6.3621,-6.3617,-6.3613,-6.3718,-6.3725,-6.3732,0,0,0,0,0,0,0,0,0,0,0,0,0,-6.3429,-6.3321,-6.359,-6.3568,-6.3567,-6.3698,-6.37,-6.3702,-6.3626,-6.3621,-6.3616,-6.3612,-6.3716,-6.3725,-6.3733,-6.389,0,0,-6.3761,-6.3765,0,0,0,0,0,0,0,0,-6.3422,-6.3439,-6.357,-6.357,-6.3569,-6.3643,-6.3641,-6.3765,-6.3628,-6.3604,-6.3615,-6.3609,-6.3698,-6.3708,-6.374,-6.3895,-6.39,-6.3761,-6.3767,-6.3771,-6.3773,0,0,0,0,0,0,0,-6.3415,-6.3434,-6.3633,-6.3572,-6.3571,-6.3551,-6.3562,-6.3664,-6.3678,-6.3605,-6.36,-6.3614,-6.3697,-6.3731,-6.3741,-6.3901,-6.3761,-6.3769,-6.3775,-6.3778,-6.4192,-6.4197,0,0,0,0,0,0,-6.3409,-6.3428,-6.3629,-6.3636,-6.3482,-6.356,-6.3573,-6.3624,-6.3677,-6.368,-6.3619,-6.361,-6.3718,-6.3731,-6.3745,-6.3933,-6.3771,-6.3779,-6.3784,-6.4186,-6.4193,-6.4199,0,0,0,0,0,0,-6.3404,-6.3428,-6.3625,-6.3531,-6.3554,-6.3571,-6.363,-6.3629,-6.3663,-6.3687,-6.3688,-6.3651,-6.3715,-6.3732,-6.3855,-6.3936,-6.3783,-6.3791,-6.418,-6.4189,-6.4196,-6.4311,0,0,0,0,0,0,-6.3396,-6.3426,-6.3487,-6.3533,-6.356,-6.3735,-6.3634,-6.3635,-6.368,-6.367,-6.3718,-6.3721,-6.3712,-6.3843,-6.3864,-6.3945,-6.3798,-6.4173,-6.4184,-6.4194,-6.43,-6.4322,-6.4341,0,0,0,0,0,-6.3386,-6.3513,-6.3491,-6.3515,-6.3636,-6.374,-6.3755,-6.3745,-6.3686,-6.3747,-6.3762,-6.3719,-6.3924,-6.3856,-6.388,-6.3965,-6.4167,-6.4181,-6.4193,-6.4291,-6.4318,-6.4341,0,0,0,0,0,0,-6.3474,-6.3519,-6.3494,-6.364,-6.3687,-6.3727,-6.3803,-6.3773,-6.3837,-6.3825,-6.3807,-6.3818,-6.3948,-6.3968,-6.3892,-6.412,-6.4036,-6.4054,-6.4102,-6.4128,-6.4148,-6.4141,-6.3806,0,0,0,0,0,-6.3511,-6.3593,-6.3627,-6.3752,-6.3778,-6.3787,-6.3832,-6.382,-6.3867,-6.3886,-6.391,-6.3956,-6.4031,-6.408,-6.415,-6.4302,-6.4312,-6.4372,-6.4393,-6.441,-6.4426,-6.4509,-6.4537,-6.4241,-6.4241,-6.4241,0,0,-6.3586,-6.3621,-6.3674,-6.3771,-6.3806,-6.3891,-6.3804,-6.3897,-6.3959,-6.3899,-6.4018,-6.4038,-6.4088,-6.4227,-6.4289,-6.4248,-6.451,-6.4426,-6.4439,-6.4446,-6.4525,-6.4553,-6.4578,-6.425,-6.4248,-6.4247,0,0,-6.3768,-6.3803,-6.3912,-6.395,-6.4006,-6.4011,-6.4037,-6.4083,-6.4095,-6.4214,-6.4171,-6.4244,-6.4373,-6.4411,-6.4448,-6.4647,-6.461,-6.4669,-6.4777,-6.4859,-6.4882,-6.4903,-6.4975,-6.5001,-6.4685,-6.4685,-6.4686,0,-6.3855,-6.3983,-6.3971,-6.4069,-6.4113,-6.4065,-6.4175,-6.4212,-6.4287,-6.4318,-6.4271,-6.4433,-6.4463,-6.4611,-6.466,-6.469,-6.472,-6.4664,-6.488,-6.4901,-6.492,-6.4988,-6.5015,-6.4692,-6.4692,-6.4691,-6.469,0,-6.4088,-6.4177,-6.4258,-6.4335,-6.4388,-6.4491,-6.4494,-6.4549,-6.4533,-6.4543,-6.4666,-6.4701,-6.4778,-6.4812,-6.4795,-6.4958,-6.4931,-6.4883,-6.4798,-6.4955,-6.5019,-6.5045,-6.4703,-6.47,-6.4698,-6.4696,0,0,-6.4327,-6.4398,-6.4428,-6.4463,-6.4522,-6.459,-6.4691,-6.4769,-6.4817,-6.487,-6.4954,-6.5065,-6.5022,-6.5063,-6.505,-6.5122,-6.5279,-6.5065,-6.5065,-6.5104,-6.5462,-6.5499,-6.553,-6.5255,-6.526,-6.5264,-6.5458,0,-6.4513,-6.4692,-6.4685,-6.4852,-6.4935,-6.4891,-6.4979,-6.5024,-6.5037,-6.5108,-6.512,-6.5201,-6.5136,-6.5161,-6.523,-6.5246,-6.5351,-6.5231,-6.5333,-6.5336,-6.5323,-6.5563,-6.5602,-6.5784,-6.5483,-6.5487,-6.549,0,-6.4754,-6.482,-6.4995,-6.5044,-6.5078,-6.5158,-6.523,-6.5298,-6.5348,-6.5352,-6.54,-6.5377,-6.5478,-6.5391,-6.553,-6.5449,-6.549,-6.5504,-6.5511,-6.5521,-6.5424,-6.5581,-6.5842,-6.587,-6.5529,-6.5526,-6.5524,0,-6.4914,-6.5044,-6.5167,-6.5198,-6.5257,-6.5315,-6.5342,-6.5387,-6.5435,-6.5497,-6.5528,-6.5599,-6.5639,-6.5695,-6.5691,-6.5628,-6.5833,-6.5745,-6.5839,-6.584,-6.5885,-6.5883,-6.6158,-6.591,-6.5909,-6.5909,-6.5908,0,-6.5123,-6.5233,-6.524,-6.5316,-6.5437,-6.5428,-6.5547,-6.5568,-6.5609,-6.5687,-6.5652,-6.5726,-6.5716,-6.579,-6.5787,-6.5904,-6.5922,-6.5927,-6.5926,-6.5932,-6.5931,-6.5959,-6.5947,-6.5916,-6.5915,-6.5913,-6.5912,0,-6.5322,-6.5331,-6.5462,-6.5509,-6.5523,-6.561,-6.5649,-6.572,-6.5731,-6.583,-6.5852,-6.5868,-6.5953,-6.5955,-6.6052,-6.605,-6.6193,-6.6176,-6.6178,-6.6175,-6.6269,-6.6261,-6.6573,-6.6614,-6.6338,-6.6341,-6.6343,0,-6.5455,-6.5539,-6.5596,-6.5647,-6.5678,-6.5761,-6.581,-6.5804,-6.5857,-6.5921,-6.5985,-6.6067,-6.6133,-6.6271,-6.629,-6.6364,-6.6349,-6.6454,-6.636,-6.6364,-6.6353,-6.6349,-6.6357,-6.6472,-6.6475,-6.6478,-6.648,0,-6.5692,-6.5694,-6.5768,-6.5845,-6.5906,-6.5965,-6.602,-6.6063,-6.6063,-6.6124,-6.6212,-6.6264,-6.6364,-6.6446,-6.6519,-6.6544,-6.6513,-6.6509,-6.6535,-6.6543,-6.6541,-6.6545,-6.6229,-6.6502,-6.65,-6.6498,-6.6497,-6.6496,-6.5864,-6.5937,-6.5989,-6.6073,-6.6115,-6.6168,-6.6238,-6.6258,-6.6332,-6.6416,-6.6406,-6.6505,-6.6553,-6.6648,-6.668,-6.6756,-6.6719,-6.6756,-6.6766,-6.6776,-6.6787,-6.6528,-6.6768,-6.6768,-6.6767,-6.6766,-6.6766,0,-6.61,-6.6132,-6.621,-6.629,-6.6356,-6.6323,-6.6382,-6.644,-6.6528,-6.6577,-6.6643,-6.6745,-6.6825,-6.6851,-6.6929,-6.6985,-6.6972,-6.7005,-6.7002,-6.7009,-6.6814,-6.6785,-6.7014,-6.7014,-6.7014,-6.7014,-6.7014,-6.7014,-6.6231,-6.6355,-6.6362,-6.6506,-6.6536,-6.6635,-6.6672,-6.672,-6.676,-6.6876,-6.6944,-6.6961,-6.7001,-6.7081,-6.7153,-6.7159,-6.7189,-6.7229,-6.7229,-6.7047,-6.7022,-6.6998,-6.6971,-6.7235,-6.7236,-6.7417,-6.7418,-6.742]}]]